Regional Weather Roundup
Issued by NWS

Home | Current Version | Previous Version | Text Only | Print | Product List | Glossary Off
Versions: 1 2 3 4 5 6 7 8 9 10 11 12 13 14 15 16 17 18 19 20 21 22 23 24 25 26 27 28 29 30 31 32 33 34 35 36 37 38 39 40 41 42 43 44 45 46 47 48 49 50

000
ASUS43 KMKX 241800
RWRWI

WISCONSIN REGIONAL WEATHER ROUNDUP
NATIONAL WEATHER SERVICE MILWAUKEE/SULLIVAN WI
1200 PM CST FRI FEB 24 2017

NOTE: "FAIR" INDICATES FEW OR NO CLOUDS BELOW 12,000 FEET WITH NO
SIGNIFICANT WEATHER AND/OR OBSTRUCTIONS TO VISIBILITY.

WIZ001-002-006>008-014>016-023>028-241900-
NORTHWEST WISCONSIN

CITY           SKY/WX    TMP DP  RH WIND       PRES   REMARKS
SUPERIOR ARPT  CLOUDY    21  12  68 N13       29.96S WCI   9
ASHLAND        LGT SNOW  20  15  81 N20G26    29.92F WCI   4
6HR MIN TEMP:  20; 6HR MAX TEMP:  25; 6HR PCP: TRACE;

HAYWARD        CLOUDY    22  14  71 N16G29    29.85F WCI   8
6HR MIN TEMP:  22; 6HR MAX TEMP:  25; 6HR PCP: TRACE;

SIREN          FLURRIES  24  17  72 N15G22    29.87F WCI  12
CUMBERLAND     LGT SNOW  23  18  80 N16G23    29.81S WCI  10
RICE LAKE      LGT SNOW  24  20  83 N15G22    29.83R WCI  12
CHETEK         LGT SNOW  25  20  80 N12G17    29.80S WCI  15
LADYSMITH      LGT SNOW  26  19  72 N13G22    29.79F WCI  15
EAU CLAIRE     NOT AVBL
MENOMONIE      LGT SNOW  28  21  75 N14G21    29.79F WCI  17
NEW RICHMOND   LGT SNOW  26  19  75 N15G23    29.83F WCI  14
OSCEOLA        CLOUDY    27  19  71 N17       29.88S WCI  14
$$

WIZ003>005-009-010-017-018-241900-
NORTH CENTRAL WISCONSIN

CITY           SKY/WX    TMP DP  RH WIND       PRES   REMARKS
MANITOWISH WTR LGT SNOW  20  17  86 NE12G21   29.77F WCI   8
ARBOR VITAE    MIX PCPN  22  18  86 N13         N/A  WCI  10
WOODRUFF       MIX PCPN  22  18  86 N13         N/A  WCI  10
RHINELANDER    LGT SNOW  23  18  81 N12G20    29.73S WCI  12
6HR MIN TEMP:  22; 6HR MAX TEMP:  24; 6HR PCP:  0.14;

EAGLE RIVER    MIX PCPN  21  17  83 NE15      29.75S WCI   8
LAND O LAKES   MIX PCPN  20  17  86 NE14G24   29.77F WCI   7
PHILLIPS       LGT SNOW  22  17  82 N16G24    29.76F WCI   8
TOMAHAWK       MIX PCPN  23  19  86 N8        29.74S WCI  14
MEDFORD        CLOUDY    24  19  82 N17G24    29.69F FOG     WCI  10
MERRILL        NOT AVBL
$$

WIZ029-030-035-036-043>047-241900-
CENTRAL WISCONSIN

CITY           SKY/WX    TMP DP  RH WIND       PRES   REMARKS
WAUSAU         LGT SNOW  24  20  84 N13G21    29.66F VSB 3/4 WCI  12
6HR MIN TEMP:  24; 6HR MAX TEMP:  27; 6HR PCP:  0.11;

MOSINEE        SNOW      25  23  93 N10G25    29.67F VSB 1/2 WCI  15
MARSHFIELD     CLOUDY    25  20  81 N13G25    29.67F HAZE    WCI  14
6HR MIN TEMP:  25; 6HR MAX TEMP:  27;

STEVENS POINT  MIX PCPN  25  22  90 N18       29.66F WCI  11
WAUPACA        CLOUDY    30  26  84 N17G24    29.65F FOG     WCI  18
WAUTOMA        FRZ RAIN  28  25  88 NE18G28   29.62F FOG     WCI  15
6HR MIN TEMP:  28; 6HR MAX TEMP:  29; 6HR PCP:  0.02;

WISC RAPIDS    MIX PCPN  27  23  85 NE10G28   29.67S FOG     WCI  17
6HR MIN TEMP:  27; 6HR MAX TEMP:  29; 6HR PCP:  0.05;

CAMP DOUGLAS   NOT AVBL
$$

WIZ011>013-019>022-031-037>040-048>050-241900-
NORTHEAST WISCONSIN

CITY           SKY/WX    TMP DP  RH WIND       PRES   REMARKS
ANTIGO         LGT SNOW  22  19  90 N12       29.68F WCI  10
SHAWANO        CLOUDY    29  25  84 NE18G25   29.67F HAZE    WCI  16
6HR MIN TEMP:  29; 6HR MAX TEMP:  31; 6HR PCP:  0.06;

OCONTO         CLOUDY    27  24  88 N14G21    29.68S WCI  16
STURGEON BAY   MIX PCPN  27  25  92 N17       29.64F FOG     WCI  14
6HR MIN TEMP:  27; 6HR MAX TEMP:  31; 6HR PCP:  0.03;

GREEN BAY      LGT SNOW  29  27  92 N22G32    29.64F FOG     WCI  15
6HR MIN TEMP:  28; 6HR MAX TEMP:  31; 6HR PCP:  0.05;

MANITOWOC      NOT AVBL
APPLETON       CLOUDY    27  23  86 NE21G30   29.60F FOG     WCI  13
CLINTONVILLE   MIX PCPN  28  25  86 NE16G23   29.67F WCI  17
OSHKOSH        FRZ RAIN  28  25  88 NE23G37   29.60F FOG     WCI  14
6HR MIN TEMP:  28; 6HR MAX TEMP:  31; 6HR PCP:  0.07;

$$

WIZ032>034-041-042-053>061-241900-
SOUTHWEST WISCONSIN

CITY           SKY/WX    TMP DP  RH WIND       PRES   REMARKS
LA CROSSE      LGT SNOW  32  28  85 N10       29.68S VSB 1   WCI  24
6HR MIN TEMP:  31; 6HR MAX TEMP:  32; 6HR PCP:  0.05;

SPARTA         CLOUDY    30  27  89 N10G18    29.69S FOG     WCI  21
VIROQUA        CLOUDY    30  28  93 NE18G24   29.62F WCI  17
BOSCOBEL       CLOUDY    32  28  85 NE9G17    29.61S FOG     WCI  24
6HR MIN TEMP:  32; 6HR MAX TEMP:  32; 6HR PCP: TRACE;

PRAIRIE DU CHI CLOUDY    31  30  96 N9        29.61F FOG     WCI  23
PLATTEVILLE    CLOUDY    32  32 100 N12       29.55R WCI  23
$$

WIZ056-057-062-063-064-067-068-241900-
SOUTH CENTRAL WISCONSIN

CITY           SKY/WX    TMP DP  RH WIND       PRES   REMARKS
REEDSBURG      CLOUDY    29  28  97 NE12G17   29.61S FOG     WCI  19
6HR MIN TEMP:  29; 6HR MAX TEMP:  29; 6HR PCP:  0.01;

BARABOO/DELLS  MIX PCPN  29  28  95 NE14G22   29.60S WCI  18
LONE ROCK      NOT AVBL
MINERAL POINT  FLURRIES  32  32 100 N5        29.54S WCI  27
MADISON        CLOUDY    31  29  92 NE17G24   29.55F FOG     WCI  19
6HR MIN TEMP:  31; 6HR MAX TEMP:  32; 6HR PCP:  0.05;

MIDDLETON      CLOUDY    32  32 100 NE13      29.56F WCI  23
WATERTOWN      CLOUDY    33  33 100 NE14G21   29.53S FOG     WCI  23
MONROE         MIX PCPN  32  32 100 NE21G28   29.50R WCI  20
JANESVILLE     NOT AVBL
$$

WIZ051-052-058>065-066-070>072-241900-
SOUTHEAST WISCONSIN

CITY           SKY/WX    TMP DP  RH WIND       PRES   REMARKS
MILWAUKEE      LGT RAIN  36  33  89 N20G26    29.51S FOG     WCI  25
6HR MIN TEMP:  35; 6HR MAX TEMP:  36; 6HR PCP:  0.02;

WAUKESHA       CLOUDY    30  30 100 NE16G23   29.57S FOG     WCI  19
MILWAUKEE/TIMM NOT AVBL
RACINE         LGT RAIN  36  34  92 N14G22    29.50F FOG     WCI  27
6HR MIN TEMP:  36; 6HR MAX TEMP:  37; 6HR PCP: TRACE;

KENOSHA        CLOUDY    37  35  92 NE10      29.48F FOG     WCI  30
6HR MIN TEMP:  36; 6HR MAX TEMP:  37; 6HR PCP:  0.03;

FOND DU LAC    LGT SNOW  30  26  85 N22       29.59F FOG     WCI  17
6HR MIN TEMP:  30; 6HR MAX TEMP:  33; 6HR PCP:  0.06;

SHEBOYGAN      MIX PCPN  32  31  96 NE23G30   29.55F FOG     WCI  19
6HR MIN TEMP:  32; 6HR MAX TEMP:  32; 6HR PCP:  0.03;

WEST BEND      CLOUDY    32  32 100 NE9       29.54R FOG     WCI  24
JUNEAU         CLOUDY    31  29  93 N10       29.56S FOG     WCI  22
$$

LSZ147-162-241900-
LAKE SUPERIOR

STATION/POSITION TIME  TEMP    WIND        PRES    WAVE
                       AIR SEA DIR/SP/G            HT/PER
                 (UTC) (F)     (DEG/KT/KT) (MB)    (FT/S)
DEVILS ISLAND    1700   18      20/ 20/ 23 1015.9S
PORT WING        1740   21      40/ 20/ 23 1014.2F
SAXON HARBOR     1730   24      20/ 23/ 26 1012.5S
$$

LMZ867-665-643>646-241900-
LAKE MICHIGAN

STATION/POSITION TIME  TEMP    WIND        PRES    WAVE
                       AIR SEA DIR/SP/G            HT/PER
                 (UTC) (F)     (DEG/KT/KT) (MB)    (FT/S)
CHAMBERS ISLAND  1740   27      10/ 26/ 30 1004.4F
NORTHPORT PIER   1740   27      20/ 15/ 23 1005.4F
SISTER BAY       1705   28      10/ 13/ 26   N/A
KEWAUNEE LAKESHO 1730   31      40/ 26/ 36 1002.5F
SHEBOYGAN LAKESH 1700   33      30/ 33/ 36 1001.5F
PORT WASHINGTON  1730   35      40/ 19/ 24 1001.4F
MILWAUKEE LAKESH 1730   35      30/ 23/ 26   N/A
KENOSHA   LAKESH 1700   35      20/ 23/ 25  999.3
$$

TC  - TEMPERATURE IN CELSIUS
VSB - VISIBILITY IN STATUTE MILES
WCI - WIND CHILL INDEX
HX  - HEAT INDEX





USA.gov is the U.S. government's official web portal to all federal, state and local government web resources and services.